DECAYED

STARLINK-31901, 59793 (Decayed)

Orbit data source: Space-Track

STARLINK-31901, 59793 was a payload satellite owned by SpaceX/Seattle (US) in LEO that was launched on Sat, 18 May 2024 UTC via an FALCON 9 launch vehicle from the Air Force Eastern Test Range (AFETR). Payload-class satellites include a variety of spacecraft equipped with specific instruments for various scientific and technological missions. These include communications satellites like Starlink; space stations such as the ISS; scientific satellites like the Hubble; Earth observation satellites from companies like Planet Labs, Umbra, and HawkEye 360; GPS; miniature CubeSats for education and research; and military/defense satellites.

Not visible in the next 10 days
Identifier
59793, 2024-093M
Orbit
Decayed
Last TLE update
1 month ago
Origin
Manufacturer
SpaceX/Seattle
Mission
Decayed spacecraft
Bus & Motor
STARLINK V2M, Unknown motor
Mass
730 kg wet, ~700 kg dry
Launch date (UTC)
2024-05-18 (1 year ago)
Launch vehicle
FALCON 9
Launch site
Air Force Eastern Test Range (AFETR)
Object type
Payload
Rocket body
Debris
Shape & HBR
Unknown
Radar Cross Section
Large (>1 m²)

Expand to show TLE details & history

TLE from 1 month ago
0 STARLINK-31901
1 59793U 24093M   25088.05626269  .02292420  76249-2  14621-2 0  9997
2 59793  42.9821 314.7501 0005891 262.8841 242.5882 16.18485959 50356
Epoch: 2025-03-29T01:21Z
Definitive object data (Epoch: 2025-03-29T01:21:01.096Z)
Latitude
22.84958°
Longitude
-98.92719°
Altitude
225.041 km
Speed
7.775 km/s
True Right ascension
07h 12m 08s
True Declination
22° 43' 01"
Sunlit
Object was in daylight at TLE epoch
Visualization observer readout
Visualization observer readout
Orbital elements
Apogee altitude
229.581 km
Perigee altitude
221.8 km
Semi-major axis
6,603.827 km
Eccentricity
0.0005891
Inclination
42.9821°
RAAN
314.7501°
Arg. of periapsis
262.8841°
True anomaly
242.52829°
Mean anomaly
242.5882°
Eccentric anomaly
242.55824°
Mean motion
4.04436 °/min
BSTAR
0.0014621
Orbital period
89.01 mins
Loading maneuver chart data...
Loading SW <> Apogee altitude chart data...
Loading historical data...
Loading historical data...
Loading historical data...
Loading historical data...
Loading historical data...
Loading historical data...
Loading historical data...

STARLINK-31901 Visibility forecast

Observer location: undefined°, undefined°

This satellite is decayed
Span
Click to sort rows by Start time (UTC) header in descending order
Start Az.
Max El. time (UTC)
Max El. Az.
Max El.
End time (UTC)
End Az.
|